[[{"header":{"parameterUnit":"m.s-1","parameterCategory":1,"la1":30.2991,"la2":30.254,"lo1":-89.0895,"lo2":-89.0444,"dy":0.0017,"dx":0.0017,"nx":28,"ny":28,"refTime":"2023-08-30T03:00:00:Z","depth":0,"parameterNumber":2,"parameterNumberName":"U-component_of_WINDS"},"data":[0,0,0,0,0,0,0,0,0,0,0,0,0,0,0,0,0,0,0,0,0,0,0,0,0,0,0,0,0,0,0,0,0,0,0,0,0,0,0,0,0,0,0,0,0,0,0,0,0,0,0,0,0,0,0,0,0,0,-1.7838,-1.7838,0,-1.7862,-1.7862,-1.7863,-1.78,-1.7798,-1.7796,-1.7794,-1.7819,-1.7822,-1.7824,0,0,0,0,0,0,0,0,0,0,0,0,0,-1.7737,-1.7739,-1.7838,-1.7838,-1.7838,-1.7862,-1.7862,-1.7863,-1.78,-1.7798,-1.7795,-1.7793,-1.7818,-1.7821,-1.7824,0,0,0,0,0,0,0,0,0,0,0,0,0,-1.7773,-1.774,-1.7838,-1.781,-1.7808,-1.7862,-1.7862,-1.7863,-1.7801,-1.7798,-1.7795,-1.7792,-1.7817,-1.7821,-1.7825,-1.7907,0,0,-1.7836,-1.7838,0,0,0,0,0,0,0,0,-1.7771,-1.7777,-1.7814,-1.7812,-1.781,-1.7825,-1.7836,-1.7878,-1.7801,-1.7803,-1.7794,-1.7791,-1.7824,-1.7827,-1.7838,-1.7908,-1.7909,-1.7837,-1.7839,-1.784,-1.7841,0,0,0,0,0,0,0,-1.7769,-1.7775,-1.7847,-1.7814,-1.7812,-1.7796,-1.7798,-1.7843,-1.783,-1.7803,-1.7799,-1.7802,-1.7822,-1.7834,-1.7838,-1.7909,-1.7836,-1.784,-1.7842,-1.7844,-1.8048,-1.8051,0,0,0,0,0,0,-1.777,-1.7774,-1.7846,-1.7848,-1.7783,-1.78,-1.7803,-1.7823,-1.7829,-1.7827,-1.7805,-1.7799,-1.7829,-1.7833,-1.7838,-1.7935,-1.784,-1.7844,-1.7846,-1.8045,-1.8049,-1.8053,0,0,0,0,0,0,-1.7768,-1.7777,-1.7846,-1.781,-1.7817,-1.7805,-1.7829,-1.7825,-1.7837,-1.783,-1.7827,-1.782,-1.7827,-1.7833,-1.789,-1.7935,-1.7846,-1.7849,-1.8041,-1.8046,-1.8051,-1.813,0,0,0,0,0,0,-1.7765,-1.7776,-1.7808,-1.7811,-1.7819,-1.7897,-1.7831,-1.7828,-1.7844,-1.7837,-1.7844,-1.7842,-1.7825,-1.7885,-1.7894,-1.7939,-1.7852,-1.8037,-1.8044,-1.8049,-1.8123,-1.8137,-1.8148,0,0,0,0,0,-1.7762,-1.7829,-1.781,-1.7819,-1.7858,-1.79,-1.7905,-1.7884,-1.7848,-1.7879,-1.7874,-1.7842,-1.7929,-1.7891,-1.7901,-1.7948,-1.8034,-1.8042,-1.8049,-1.8117,-1.8134,-1.8148,0,0,0,0,0,0,-1.7832,-1.7829,-1.7807,-1.7878,-1.789,-1.7889,-1.7928,-1.7902,-1.7925,-1.7917,-1.789,-1.7892,-1.7955,-1.7956,-1.7915,-1.8027,-1.7975,-1.7985,-1.8024,-1.804,-1.8052,-1.8051,-1.7855,0,0,0,0,0,-1.7855,-1.7889,-1.7885,-1.7947,-1.7955,-1.7941,-1.7958,-1.7941,-1.7952,-1.7957,-1.7956,-1.7969,-1.7999,-1.8019,-1.8046,-1.8122,-1.8123,-1.8159,-1.8172,-1.8182,-1.8191,-1.8232,-1.8248,-1.8076,-1.8076,-1.8076,0,0,-1.7904,-1.7907,-1.793,-1.7962,-1.7969,-1.8005,-1.7945,-1.7986,-1.8013,-1.7963,-1.8017,-1.8017,-1.8029,-1.8096,-1.8126,-1.81,-1.8238,-1.8191,-1.8199,-1.8203,-1.8241,-1.8257,-1.8272,-1.8081,-1.808,-1.8079,0,0,-1.8012,-1.8018,-1.8071,-1.8079,-1.809,-1.8081,-1.8093,-1.8097,-1.8095,-1.8149,-1.8113,-1.8144,-1.8196,-1.8206,-1.8218,-1.8329,-1.83,-1.8339,-1.8405,-1.8445,-1.8458,-1.847,-1.8511,-1.8526,-1.8347,-1.8347,-1.8347,0,-1.8072,-1.8126,-1.8101,-1.8144,-1.8159,-1.8115,-1.8169,-1.8178,-1.8198,-1.8209,-1.8179,-1.8244,-1.8249,-1.8318,-1.8345,-1.8356,-1.837,-1.8338,-1.8458,-1.847,-1.8481,-1.8519,-1.8534,-1.8352,-1.8351,-1.8351,-1.8351,0,-1.8199,-1.8236,-1.8277,-1.8298,-1.8317,-1.8365,-1.8348,-1.837,-1.8351,-1.8344,-1.84,-1.8404,-1.8431,-1.8446,-1.8428,-1.8513,-1.8496,-1.8463,-1.841,-1.8502,-1.8538,-1.8552,-1.8359,-1.8357,-1.8356,-1.8354,0,0,-1.8353,-1.8359,-1.8374,-1.8383,-1.8392,-1.8421,-1.8467,-1.8493,-1.8513,-1.8528,-1.8566,-1.8611,-1.858,-1.8594,-1.8576,-1.8611,-1.87,-1.8573,-1.8573,-1.8598,-1.8795,-1.8821,-1.8838,-1.868,-1.8683,-1.8685,-1.8794,0,-1.846,-1.854,-1.8518,-1.8597,-1.8632,-1.859,-1.863,-1.864,-1.8635,-1.8663,-1.8657,-1.869,-1.8646,-1.8654,-1.8687,-1.8682,-1.874,-1.8674,-1.8716,-1.8718,-1.8716,-1.8857,-1.8884,-1.8987,-1.8808,-1.881,-1.8812,0,-1.8597,-1.8617,-1.87,-1.8703,-1.8717,-1.8753,-1.8776,-1.8803,-1.8814,-1.8807,-1.8822,-1.8797,-1.8843,-1.8789,-1.8851,-1.8807,-1.8823,-1.8823,-1.8827,-1.8831,-1.8772,-1.8866,-1.9019,-1.9035,-1.8833,-1.8832,-1.883,0,-1.8702,-1.875,-1.8805,-1.8814,-1.8819,-1.8846,-1.885,-1.8857,-1.8874,-1.8894,-1.8905,-1.8929,-1.8943,-1.8963,-1.8945,-1.8908,-1.9011,-1.8955,-1.9008,-1.9008,-1.9032,-1.9031,-1.9192,-1.9041,-1.904,-1.904,-1.904,0,-1.8825,-1.8878,-1.8853,-1.8887,-1.8945,-1.892,-1.8977,-1.8976,-1.8983,-1.9016,-1.8981,-1.9013,-1.8987,-1.9017,-1.9003,-1.9058,-1.9064,-1.906,-1.9056,-1.9064,-1.9065,-1.9075,-1.9068,-1.9044,-1.9043,-1.9042,-1.9042,0,-1.8953,-1.8939,-1.8997,-1.8997,-1.8998,-1.904,-1.904,-1.9072,-1.9064,-1.9107,-1.9115,-1.9102,-1.9136,-1.912,-1.9154,-1.9145,-1.9215,-1.9201,-1.9212,-1.9209,-1.9262,-1.9258,-1.9436,-1.9459,-1.9292,-1.9294,-1.9295,0,-1.9033,-1.9073,-1.9077,-1.9097,-1.9103,-1.9135,-1.9152,-1.9129,-1.9148,-1.9163,-1.9193,-1.9223,-1.9246,-1.9302,-1.9296,-1.9322,-1.9309,-1.9369,-1.9313,-1.932,-1.9311,-1.931,-1.9314,-1.9381,-1.9383,-1.9385,-1.9386,0,-1.9177,-1.9168,-1.9195,-1.9219,-1.9241,-1.9259,-1.9273,-1.9292,-1.9268,-1.9292,-1.9326,-1.9344,-1.9379,-1.941,-1.9433,-1.9436,-1.9408,-1.9404,-1.9417,-1.9427,-1.9432,-1.9431,-1.9245,-1.94,-1.9399,-1.9398,-1.9397,-1.9396,-1.9284,-1.9318,-1.9326,-1.9357,-1.9365,-1.938,-1.941,-1.9405,-1.9433,-1.946,-1.9444,-1.9483,-1.9492,-1.952,-1.9528,-1.9558,-1.9534,-1.9554,-1.9559,-1.9565,-1.9572,-1.9426,-1.9562,-1.9562,-1.9561,-1.9561,-1.9561,0,-1.9428,-1.9431,-1.9459,-1.9481,-1.9505,-1.9475,-1.949,-1.9513,-1.9548,-1.9559,-1.9582,-1.9621,-1.965,-1.9646,-1.9673,-1.9699,-1.9686,-1.9707,-1.9705,-1.9707,-1.9592,-1.9578,-1.9716,-1.9716,-1.9716,-1.9716,-1.9716,-1.9716,-1.9505,-1.956,-1.9551,-1.961,-1.9612,-1.9651,-1.9662,-1.9675,-1.9684,-1.9729,-1.9753,-1.975,-1.9755,-1.9782,-1.9808,-1.9806,-1.9818,-1.9843,-1.9837,-1.973,-1.9715,-1.97,-1.9687,-1.9846,-1.9846,-1.9949,-1.995,-1.9951]},{"header":{"parameterUnit":"m.s-1","parameterCategory":1,"la1":30.2991,"la2":30.254,"lo1":-89.0895,"lo2":-89.0444,"dy":0.0017,"dx":0.0017,"nx":28,"ny":28,"refTime":"2023-08-30T03:00:00:Z","depth":0,"parameterNumber":3,"parameterNumberName":"V-component_of_WINDS"},"data":[0,0,0,0,0,0,0,0,0,0,0,0,0,0,0,0,0,0,0,0,0,0,0,0,0,0,0,0,0,0,0,0,0,0,0,0,0,0,0,0,0,0,0,0,0,0,0,0,0,0,0,0,0,0,0,0,0,0,-0.5443,-0.5443,0,-0.5437,-0.5437,-0.5437,-0.5417,-0.5417,-0.5416,-0.5416,-0.541,-0.541,-0.541,0,0,0,0,0,0,0,0,0,0,0,0,0,-0.5438,-0.5438,-0.5443,-0.5443,-0.5443,-0.5437,-0.5437,-0.5437,-0.5417,-0.5417,-0.5416,-0.5415,-0.541,-0.541,-0.541,0,0,0,0,0,0,0,0,0,0,0,0,0,-0.5437,-0.5438,-0.5443,-0.5433,-0.5432,-0.5437,-0.5437,-0.5437,-0.5417,-0.5417,-0.5416,-0.5415,-0.541,-0.541,-0.5411,-0.5427,0,0,-0.5412,-0.5412,0,0,0,0,0,0,0,0,-0.5437,-0.5437,-0.5434,-0.5433,-0.5432,-0.5427,-0.5433,-0.5434,-0.5417,-0.5423,-0.5416,-0.5415,-0.5416,-0.5416,-0.5416,-0.5426,-0.5426,-0.5412,-0.5412,-0.5412,-0.5412,0,0,0,0,0,0,0,-0.5437,-0.5437,-0.5441,-0.5434,-0.5433,-0.5428,-0.5427,-0.5433,-0.5423,-0.5422,-0.5421,-0.542,-0.5416,-0.5416,-0.5416,-0.5426,-0.5412,-0.5412,-0.5412,-0.5413,-0.5449,-0.5449,0,0,0,0,0,0,-0.5439,-0.5438,-0.5441,-0.5441,-0.5433,-0.5429,-0.5428,-0.543,-0.5423,-0.5422,-0.5421,-0.5419,-0.5416,-0.5416,-0.5416,-0.5435,-0.5412,-0.5413,-0.5413,-0.5448,-0.5449,-0.545,0,0,0,0,0,0,-0.5439,-0.5439,-0.5441,-0.5439,-0.5439,-0.5429,-0.5432,-0.543,-0.543,-0.5422,-0.542,-0.5423,-0.5415,-0.5415,-0.5424,-0.5434,-0.5413,-0.5413,-0.5447,-0.5448,-0.5449,-0.5472,0,0,0,0,0,0,-0.5439,-0.5439,-0.5445,-0.5439,-0.5439,-0.545,-0.5432,-0.543,-0.5431,-0.5429,-0.5424,-0.5422,-0.5415,-0.5424,-0.5424,-0.5434,-0.5413,-0.5446,-0.5448,-0.5449,-0.5471,-0.5474,-0.5477,0,0,0,0,0,-0.5438,-0.5452,-0.5446,-0.5446,-0.5446,-0.5451,-0.545,-0.5441,-0.5432,-0.5438,-0.5433,-0.5423,-0.5433,-0.5425,-0.5425,-0.5436,-0.5446,-0.5447,-0.5449,-0.5469,-0.5473,-0.5477,0,0,0,0,0,0,-0.546,-0.5451,-0.5444,-0.5456,-0.5454,-0.5447,-0.5455,-0.5446,-0.5447,-0.5445,-0.5433,-0.5432,-0.5443,-0.544,-0.5431,-0.5451,-0.5437,-0.5439,-0.5453,-0.5456,-0.546,-0.5461,-0.5414,0,0,0,0,0,-0.5467,-0.5471,-0.5462,-0.5474,-0.5473,-0.5464,-0.5465,-0.5458,-0.5456,-0.5455,-0.545,-0.5449,-0.5451,-0.5454,-0.5456,-0.5469,-0.5468,-0.5477,-0.548,-0.5483,-0.5485,-0.5492,-0.5496,-0.5455,-0.5455,-0.5455,0,0,-0.548,-0.5475,-0.5478,-0.5478,-0.5476,-0.5481,-0.5464,-0.5469,-0.5473,-0.5456,-0.5464,-0.5461,-0.5458,-0.5469,-0.5474,-0.5467,-0.5496,-0.5485,-0.5487,-0.5488,-0.5494,-0.5498,-0.5502,-0.5456,-0.5456,-0.5456,0,0,-0.5506,-0.5503,-0.5512,-0.551,-0.5506,-0.55,-0.5502,-0.5496,-0.5493,-0.5501,-0.5489,-0.5492,-0.5497,-0.5496,-0.5496,-0.5521,-0.5512,-0.5521,-0.5539,-0.5546,-0.5549,-0.5552,-0.5562,-0.5565,-0.5523,-0.5523,-0.5523,0,-0.5523,-0.5529,-0.5518,-0.5524,-0.5525,-0.5509,-0.5519,-0.5517,-0.5515,-0.5515,-0.5507,-0.5513,-0.551,-0.5521,-0.5527,-0.5527,-0.553,-0.5523,-0.555,-0.5552,-0.5555,-0.5564,-0.5568,-0.5525,-0.5524,-0.5524,-0.5524,0,-0.555,-0.5555,-0.5563,-0.5561,-0.5562,-0.557,-0.556,-0.5562,-0.5554,-0.5549,-0.5557,-0.5553,-0.5554,-0.5555,-0.5548,-0.5565,-0.5561,-0.5552,-0.5538,-0.556,-0.5569,-0.5572,-0.5526,-0.5526,-0.5526,-0.5525,0,0,-0.5592,-0.5583,-0.5586,-0.5585,-0.5579,-0.5583,-0.559,-0.559,-0.5593,-0.5591,-0.5597,-0.5601,-0.5592,-0.5592,-0.5584,-0.559,-0.5611,-0.558,-0.558,-0.5587,-0.5631,-0.5639,-0.5643,-0.5605,-0.5605,-0.5606,-0.5631,0,-0.5618,-0.563,-0.5619,-0.5633,-0.5637,-0.5622,-0.5628,-0.5625,-0.562,-0.5623,-0.5617,-0.5621,-0.5608,-0.5608,-0.5613,-0.5608,-0.562,-0.5605,-0.5611,-0.5611,-0.5613,-0.5648,-0.5656,-0.5681,-0.5635,-0.5635,-0.5635,0,-0.565,-0.565,-0.5664,-0.5657,-0.5659,-0.5664,-0.5664,-0.5667,-0.5663,-0.5659,-0.5658,-0.5649,-0.5655,-0.5641,-0.565,-0.564,-0.5641,-0.5639,-0.564,-0.5641,-0.5626,-0.5651,-0.5689,-0.5693,-0.564,-0.564,-0.564,0,-0.568,-0.5683,-0.5692,-0.5691,-0.5683,-0.5688,-0.5685,-0.5681,-0.5682,-0.5681,-0.5682,-0.5682,-0.5682,-0.5683,-0.5674,-0.5664,-0.5684,-0.5669,-0.5681,-0.5682,-0.5687,-0.5687,-0.5727,-0.5686,-0.5686,-0.5686,-0.5686,0,-0.5711,-0.572,-0.5705,-0.5711,-0.5721,-0.5709,-0.5719,-0.5714,-0.5711,-0.5715,-0.5702,-0.5706,-0.5693,-0.5696,-0.5689,-0.5698,-0.5698,-0.5695,-0.5693,-0.5697,-0.5697,-0.5698,-0.5697,-0.5687,-0.5687,-0.5687,-0.5686,0,-0.5747,-0.5737,-0.5746,-0.5737,-0.5736,-0.5744,-0.5736,-0.5741,-0.5734,-0.574,-0.5741,-0.5731,-0.5734,-0.5724,-0.5725,-0.572,-0.5734,-0.5729,-0.5735,-0.5734,-0.5747,-0.5747,-0.579,-0.5796,-0.575,-0.5751,-0.5751,0,-0.5768,-0.5775,-0.5767,-0.5769,-0.5767,-0.577,-0.5771,-0.5758,-0.576,-0.5756,-0.5761,-0.5763,-0.5764,-0.5769,-0.5762,-0.5763,-0.5759,-0.5774,-0.5759,-0.5762,-0.576,-0.576,-0.5761,-0.5777,-0.5778,-0.5778,-0.5779,0,-0.5807,-0.5801,-0.5803,-0.5802,-0.5804,-0.5803,-0.5801,-0.5804,-0.579,-0.5792,-0.5795,-0.5796,-0.5797,-0.5799,-0.5798,-0.5795,-0.5785,-0.5783,-0.5786,-0.5791,-0.5795,-0.5794,-0.5745,-0.5783,-0.5782,-0.5782,-0.5782,-0.5782,-0.5836,-0.5842,-0.5837,-0.5839,-0.5837,-0.5835,-0.5839,-0.5833,-0.5835,-0.5835,-0.5827,-0.5832,-0.5827,-0.5825,-0.5823,-0.5827,-0.582,-0.5824,-0.5825,-0.5827,-0.583,-0.5793,-0.5826,-0.5826,-0.5826,-0.5826,-0.5826,0,-0.5875,-0.5871,-0.5873,-0.5871,-0.5873,-0.5862,-0.5859,-0.5862,-0.5865,-0.5862,-0.5863,-0.5866,-0.5868,-0.5861,-0.5861,-0.5865,-0.5861,-0.5866,-0.5867,-0.5866,-0.5835,-0.5833,-0.587,-0.587,-0.587,-0.587,-0.587,-0.587,-0.5896,-0.5905,-0.5899,-0.5906,-0.5902,-0.5906,-0.5905,-0.5904,-0.5901,-0.5905,-0.5907,-0.5901,-0.5897,-0.5897,-0.5898,-0.5896,-0.5897,-0.5904,-0.5901,-0.5872,-0.5868,-0.5864,-0.5862,-0.5904,-0.5905,-0.5931,-0.5932,-0.5932]}]]